EN

Hourly Weather Kyshyn

Today, 1 August, Sunday

Time Temperature Precipitation Wind Pressure Humidity
00:00 +19°C° 0.3 mm 2 mps 740 mmHg 95%
01:00 +18°C° 0.3 mm 2 mps 740 mmHg 95%
02:00 +19°C° 0.3 mm 1 mps 739 mmHg 95%
03:00 +19°C° 0 mm 1 mps 740 mmHg 95%
04:00 +19°C° 0 mm 1 mps 740 mmHg 96%
05:00 +18°C° 0 mm 2 mps 740 mmHg 96%
06:00 +19°C° 0 mm 2 mps 740 mmHg 91%
07:00 +20°C° 0 mm 2 mps 740 mmHg 86%
08:00 +21°C° 0 mm 2 mps 740 mmHg 82%
09:00 +24°C° 0 mm 2 mps 740 mmHg 72%
10:00 +26°C° 0 mm 2 mps 741 mmHg 62%
11:00 +28°C° 0 mm 1 mps 741 mmHg 52%
12:00 +29°C° 0 mm 1 mps 740 mmHg 49%
13:00 +30°C° 0 mm 1 mps 740 mmHg 46%
14:00 +31°C° 0 mm 1 mps 740 mmHg 43%
15:00 +31°C° 0 mm 1 mps 740 mmHg 43%
16:00 +30°C° 0 mm 2 mps 739 mmHg 44%
17:00 +30°C° 0 mm 2 mps 739 mmHg 44%
18:00 +28°C° 0 mm 2 mps 739 mmHg 53%
19:00 +26°C° 0 mm 2 mps 739 mmHg 61%
20:00 +24°C° 0 mm 2 mps 738 mmHg 70%
21:00 +24°C° 0 mm 2 mps 738 mmHg 72%
22:00 +23°C° 0 mm 2 mps 738 mmHg 73%
23:00 +23°C° 0 mm 2 mps 738 mmHg 75%

Tomorrow, 2 August, Monday

Time Temperature Precipitation Wind Pressure Humidity
00:00 +21°C° 0.3 mm 2 mps 738 mmHg 80%
01:00 +21°C° 0.3 mm 2 mps 737 mmHg 85%
02:00 +20°C° 0.3 mm 2 mps 737 mmHg 90%
03:00 +20°C° 0 mm 2 mps 737 mmHg 90%
04:00 +19°C° 0 mm 2 mps 737 mmHg 91%
05:00 +19°C° 0 mm 2 mps 736 mmHg 91%
06:00 +20°C° 0 mm 3 mps 736 mmHg 86%
07:00 +22°C° 0 mm 3 mps 736 mmHg 80%
08:00 +23°C° 0 mm 4 mps 736 mmHg 75%
09:00 +25°C° 0 mm 4 mps 737 mmHg 69%
10:00 +27°C° 0 mm 4 mps 737 mmHg 62%
11:00 +28°C° 0 mm 5 mps 737 mmHg 56%
12:00 +28°C° 0 mm 5 mps 737 mmHg 54%
13:00 +29°C° 0 mm 6 mps 737 mmHg 52%
14:00 +29°C° 0 mm 6 mps 737 mmHg 49%
15:00 +27°C° 0 mm 6 mps 738 mmHg 54%
16:00 +24°C° 0 mm 6 mps 738 mmHg 59%
17:00 +23°C° 0 mm 6 mps 739 mmHg 63%
18:00 +21°C° 0 mm 5 mps 739 mmHg 67%
19:00 +20°C° 0 mm 4 mps 739 mmHg 72%
20:00 +18°C° 0 mm 2 mps 740 mmHg 76%
21:00 +18°C° 0 mm 2 mps 740 mmHg 79%
22:00 +17°C° 0 mm 2 mps 740 mmHg 83%
23:00 +16°C° 0 mm 2 mps 741 mmHg 86%

Day after tomorrow, 3 August, Tuesday

Time Temperature Precipitation Wind Pressure Humidity
00:00 +16°C° 0 mm 2 mps 741 mmHg 88%
01:00 +15°C° 0 mm 2 mps 741 mmHg 91%
02:00 +15°C° 0 mm 2 mps 741 mmHg 93%
03:00 +15°C° 0 mm 2 mps 742 mmHg 94%
04:00 +14°C° 0 mm 2 mps 742 mmHg 95%
05:00 +14°C° 0 mm 2 mps 742 mmHg 97%
06:00 +16°C° 0 mm 3 mps 742 mmHg 88%
07:00 +18°C° 0 mm 3 mps 743 mmHg 79%
08:00 +19°C° 0 mm 3 mps 743 mmHg 69%
09:00 +21°C° 0 mm 3 mps 743 mmHg 63%
10:00 +22°C° 0 mm 4 mps 743 mmHg 57%
11:00 +23°C° 0 mm 4 mps 744 mmHg 51%
12:00 +25°C° 0 mm 4 mps 743 mmHg 48%
13:00 +25°C° 0 mm 4 mps 743 mmHg 45%
14:00 +25°C° 0 mm 4 mps 743 mmHg 41%
15:00 +25°C° 0 mm 3 mps 743 mmHg 43%
16:00 +25°C° 0 mm 3 mps 744 mmHg 45%
17:00 +24°C° 0 mm 3 mps 744 mmHg 47%
18:00 +23°C° 0 mm 2 mps 744 mmHg 52%
19:00 +20°C° 0 mm 2 mps 744 mmHg 57%
20:00 +20°C° 0 mm 1 mps 745 mmHg 63%
21:00 +19°C° 0 mm 1 mps 745 mmHg 66%
22:00 +18°C° 0 mm 1 mps 745 mmHg 69%
23:00 +15°C° 0 mm 0 mps 745 mmHg 73%

4 August, Wednesday

Time Temperature Precipitation Wind Pressure Humidity
00:00 +15°C° 0 mm 1 mps 745 mmHg 74%
01:00 +15°C° 0 mm 1 mps 745 mmHg 75%
02:00 +15°C° 0 mm 1 mps 745 mmHg 77%
03:00 +15°C° 0 mm 1 mps 745 mmHg 78%
04:00 +14°C° 0 mm 1 mps 745 mmHg 79%
05:00 +14°C° 0 mm 1 mps 745 mmHg 80%
06:00 +16°C° 0 mm 1 mps 745 mmHg 74%
07:00 +19°C° 0 mm 1 mps 746 mmHg 67%
08:00 +21°C° 0 mm 1 mps 746 mmHg 61%
09:00 +23°C° 0 mm 1 mps 746 mmHg 56%
10:00 +25°C° 0 mm 1 mps 746 mmHg 50%
11:00 +27°C° 0 mm 2 mps 746 mmHg 45%
12:00 +27°C° 0 mm 2 mps 745 mmHg 45%
13:00 +27°C° 0 mm 2 mps 745 mmHg 44%
14:00 +28°C° 0 mm 2 mps 745 mmHg 43%
15:00 +27°C° 0 mm 2 mps 744 mmHg 48%
16:00 +26°C° 0 mm 2 mps 744 mmHg 53%
17:00 +25°C° 0 mm 2 mps 744 mmHg 58%
18:00 +24°C° 0.1 mm 2 mps 744 mmHg 63%
19:00 +22°C° 0.1 mm 3 mps 744 mmHg 67%
20:00 +21°C° 0.1 mm 3 mps 743 mmHg 71%
21:00 +20°C° 0.5 mm 3 mps 743 mmHg 76%
22:00 +19°C° 0.5 mm 3 mps 743 mmHg 81%
23:00 +18°C° 0.5 mm 2 mps 743 mmHg 86%

5 August, Thursday

Time Temperature Precipitation Wind Pressure Humidity
00:00 +18°C° 0.7 mm 2 mps 743 mmHg 87%
01:00 +18°C° 0.7 mm 3 mps 742 mmHg 89%
02:00 +18°C° 0.7 mm 3 mps 742 mmHg 90%
03:00 +18°C° 1.4 mm 2 mps 741 mmHg 92%
04:00 +18°C° 1.4 mm 2 mps 741 mmHg 94%
05:00 +17°C° 1.4 mm 2 mps 741 mmHg 96%
06:00 +19°C° 0.5 mm 2 mps 741 mmHg 93%
07:00 +20°C° 0.5 mm 3 mps 741 mmHg 90%
08:00 +21°C° 0.5 mm 3 mps 741 mmHg 87%
09:00 +23°C° 0 mm 4 mps 740 mmHg 77%
10:00 +26°C° 0 mm 4 mps 740 mmHg 67%
11:00 +28°C° 0 mm 4 mps 740 mmHg 56%
12:00 +29°C° 0 mm 3 mps 740 mmHg 52%
13:00 +30°C° 0 mm 3 mps 740 mmHg 47%
14:00 +31°C° 0 mm 3 mps 739 mmHg 43%
15:00 +30°C° 0 mm 3 mps 739 mmHg 45%
16:00 +30°C° 0 mm 2 mps 739 mmHg 48%
17:00 +30°C° 0 mm 2 mps 738 mmHg 50%
18:00 +27°C° 0.6 mm 1 mps 738 mmHg 63%
19:00 +25°C° 0.6 mm 1 mps 738 mmHg 76%
20:00 +22°C° 0.6 mm 1 mps 738 mmHg 88%
21:00 +21°C° 2.3 mm 2 mps 737 mmHg 91%
22:00 +20°C° 2.3 mm 3 mps 737 mmHg 94%
23:00 +20°C° 2.3 mm 3 mps 736 mmHg 97%

6 August, Friday

Time Temperature Precipitation Wind Pressure Humidity
00:00 +20°C° 2.9 mm 3 mps 736 mmHg 97%
01:00 +20°C° 2.9 mm 3 mps 736 mmHg 96%
02:00 +20°C° 2.9 mm 4 mps 735 mmHg 96%
03:00 +19°C° 0.2 mm 3 mps 735 mmHg 96%
04:00 +19°C° 0.2 mm 3 mps 735 mmHg 97%
05:00 +18°C° 0.2 mm 2 mps 735 mmHg 97%
06:00 +18°C° 0.5 mm 3 mps 736 mmHg 96%
07:00 +17°C° 0.5 mm 4 mps 736 mmHg 96%
08:00 +16°C° 0.5 mm 5 mps 737 mmHg 95%
09:00 +16°C° 0 mm 5 mps 738 mmHg 89%
10:00 +18°C° 0 mm 4 mps 738 mmHg 84%
11:00 +19°C° 0 mm 4 mps 739 mmHg 79%
12:00 +20°C° 0 mm 4 mps 739 mmHg 69%
13:00 +22°C° 0 mm 4 mps 739 mmHg 60%
14:00 +25°C° 0 mm 4 mps 739 mmHg 51%
15:00 +24°C° 0 mm 3 mps 739 mmHg 53%
16:00 +24°C° 0 mm 3 mps 739 mmHg 56%
17:00 +22°C° 0 mm 3 mps 739 mmHg 58%
18:00 +23°C° 0 mm 2 mps 739 mmHg 60%
19:00 +21°C° 0 mm 2 mps 739 mmHg 62%
20:00 +21°C° 0 mm 1 mps 740 mmHg 65%
21:00 +21°C° 0 mm 1 mps 740 mmHg 67%
22:00 +19°C° 0 mm 2 mps 740 mmHg 69%
23:00 +19°C° 0 mm 2 mps 740 mmHg 71%
Show more